Torna al catalogo

STARLINK-38056

AttivoComunicazioniSSO
NORAD 69760·PAYLOAD·🇺🇸 United States

Lanciato Jul 2, 2026 da Vandenberg Space Force Base

Loading…

Prossimi Passaggi (prossime 24 ore)

TLE

AggiornatoSource: CelesTrak SupGP

Epoca: Sep 14, 2026, 22:45 UTC

1 69760C 26150X   26257.94840278 -.00048240  00000+0 -14971-2 0  2576
2 69760  97.2844  96.9621 0001643  92.8967 335.5174 15.33472018    15

Traccia STARLINK-38056 in tempo reale con AllMySat

Download on the App Store